User: anonymous   Login
Location: Aulagny
(45.1643°N, 4.3096°E)
Time: 18:54:48
(UTC+00:00)
Language:

Abrixas rocket - Orbit

View from above orbital plane
View from above orbital plane
View from above satellite
View from above satellite

Ground track
Ground track

The orbit data is extracted from the following two-line orbital elements,

1 25723U 99022C   19348.88178129 +.00010501 +00000-0 +93306-4 0  9992
2 25723 048.4128 299.8961 0006544 151.1813 208.9501 15.69029983148472
Epoch (UTC): 14 December 2019 21:09:45
Eccentricity: 0.0006544
inclination: 48.4128°
perigee height: 357 km
apogee height: 366 km
right ascension of ascending node: 299.8961°
argument of perigee: 151.1813°
revolutions per day: 15.69029983
mean anomaly at epoch: 208.9501°
orbit number at epoch: 14847

The dashed part of the orbit path shows where the satellite is in the earth's shadow,  

DLR